Wetterdaten: aktuell Freitag, 23.02.2024 05:40
Datum Zeit Wetterhtte Helligkeit Boden -10cm Boden 5cm Temp S Luftfeuchte Luftdruck Regen Wind Richtung Richtung Sonnenschein UV Taupunkt Windchill Windben
23.02.2024 05:40 7,2 C -21,3 C 10,2 C 8,0 C 7,2 C 70 % 993,7 hPa 0,0 l/m 10,1 km/h NO 49 0 min 0,0 UV-I 2,1 C 4,4 C 20,3 km/h
23.02.2024 05:35 7,3 C -21,3 C 10,2 C 8,0 C 7,2 C 71 % 993,7 hPa 0,0 l/m 7,4 km/h W 274 0 min 0,0 UV-I 2,4 C 6,5 C 7,0 km/h
23.02.2024 05:30 7,2 C -21,3 C 10,2 C 8,0 C 7,3 C 71 % 993,7 hPa 0,0 l/m 7,4 km/h SO 139 0 min 0,0 UV-I 2,3 C 6,4 C 7,0 km/h
23.02.2024 05:25 7,3 C -21,3 C 10,3 C 8,0 C 7,3 C 71 % 993,7 hPa 0,0 l/m 8,0 km/h NO 49 0 min 0,0 UV-I 2,4 C 6,0 C 3,3 km/h
23.02.2024 05:20 7,3 C -21,3 C 10,3 C 8,1 C 7,3 C 71 % 993,9 hPa 0,0 l/m 7,4 km/h S 184 0 min 0,0 UV-I 2,4 C 6,5 C 0,0 km/h
23.02.2024 05:15 7,4 C -21,3 C 10,3 C 8,0 C 7,1 C 71 % 993,9 hPa 0,0 l/m 8,3 km/h S 184 0 min 0,0 UV-I 2,5 C 5,9 C 14,9 km/h
23.02.2024 05:10 7,4 C -21,3 C 10,3 C 8,1 C 7,1 C 71 % 993,9 hPa 0,0 l/m 8,0 km/h W 274 0 min 0,0 UV-I 2,5 C 6,1 C 5,7 km/h
23.02.2024 05:05 7,5 C -21,3 C 10,3 C 8,2 C 7,0 C 71 % 993,9 hPa 0,0 l/m 8,3 km/h S-SW 206 0 min 0,0 UV-I 2,6 C 6,0 C 16,2 km/h
23.02.2024 05:00 7,6 C -21,3 C 10,4 C 8,2 C 7,1 C 71 % 993,3 hPa 0,0 l/m 6,0 km/h NW 319 0 min 0,0 UV-I 2,7 C 7,6 C 4,4 km/h
23.02.2024 04:55 7,7 C -21,3 C 10,4 C 8,3 C 7,1 C 70 % 993,3 hPa 0,0 l/m 7,1 km/h N-NO 26 0 min 0,0 UV-I 2,6 C 7,1 C 4,4 km/h
23.02.2024 04:51 7,8 C -21,3 C 10,4 C 8,3 C 7,5 C 70 % 993,3 hPa 0,0 l/m 10,1 km/h W-SW 251 0 min 0,0 UV-I 2,7 C 5,1 C 9,3 km/h
23.02.2024 04:47 7,8 C -21,3 C 10,4 C 8,3 C 7,5 C 70 % 993,3 hPa 0,0 l/m 10,1 km/h W-SW 251 0 min 0,0 UV-I 2,7 C 5,1 C 9,3 km/h
23.02.2024 04:42 7,9 C -21,3 C 10,4 C 8,4 C 7,3 C 69 % 993,3 hPa 0,0 l/m 8,9 km/h S-SO 161 0 min 0,0 UV-I 2,6 C 6,0 C 14,4 km/h
23.02.2024 04:37 8,0 C -21,3 C 10,5 C 8,4 C 7,3 C 69 % 993,5 hPa 0,0 l/m 8,3 km/h S 184 0 min 0,0 UV-I 2,7 C 6,5 C 12,9 km/h
23.02.2024 04:32 8,1 C -21,3 C 10,5 C 8,5 C 7,5 C 68 % 993,5 hPa 0,0 l/m 7,7 km/h NW 319 0 min 0,0 UV-I 2,6 C 7,1 C 5,9 km/h
23.02.2024 04:27 8,3 C -21,3 C 10,5 C 8,6 C 7,6 C 68 % 993,5 hPa 0,0 l/m 10,4 km/h S 184 0 min 0,0 UV-I 2,7 C 5,5 C 9,8 km/h
23.02.2024 04:22 8,3 C -21,3 C 10,5 C 8,7 C 7,9 C 67 % 993,5 hPa 0,0 l/m 12,2 km/h SO 139 0 min 0,0 UV-I 2,5 C 4,4 C 3,1 km/h
23.02.2024 04:17 8,4 C -21,3 C 10,5 C 8,7 C 8,3 C 67 % 993,1 hPa 0,0 l/m 10,7 km/h W 274 0 min 0,0 UV-I 2,6 C 5,4 C 13,9 km/h
23.02.2024 04:12 8,5 C -21,3 C 10,5 C 8,8 C 8,2 C 67 % 993,1 hPa 0,0 l/m 11,0 km/h W-SW 251 0 min 0,0 UV-I 2,7 C 5,3 C 22,1 km/h
23.02.2024 04:07 8,6 C -21,3 C 10,5 C 8,8 C 8,3 C 66 % 993,1 hPa 0,0 l/m 10,7 km/h S-SO 161 0 min 0,0 UV-I 2,6 C 5,6 C 13,4 km/h
23.02.2024 04:02 8,7 C -21,1 C 10,6 C 8,8 C 8,3 C 66 % 993,1 hPa 0,0 l/m 10,7 km/h SW 229 0 min 0,0 UV-I 2,7 C 5,7 C 9,3 km/h
23.02.2024 03:57 8,7 C -21,1 C 10,6 C 8,9 C 8,4 C 66 % 992,7 hPa 0,0 l/m 10,7 km/h NW 319 0 min 0,0 UV-I 2,7 C 5,7 C 25,0 km/h
23.02.2024 03:52 8,8 C -21,1 C 10,6 C 9,0 C 8,5 C 66 % 992,7 hPa 0,0 l/m 11,0 km/h S-SW 206 0 min 0,0 UV-I 2,8 C 5,7 C 11,8 km/h
23.02.2024 03:47 8,9 C -21,1 C 10,6 C 9,0 C 8,6 C 66 % 992,7 hPa 0,0 l/m 11,3 km/h W 274 0 min 0,0 UV-I 2,9 C 5,6 C 15,7 km/h
23.02.2024 03:42 9,0 C -21,1 C 10,6 C 9,1 C 8,7 C 66 % 992,7 hPa 0,0 l/m 11,6 km/h W-SW 251 0 min 0,0 UV-I 3,0 C 5,6 C 7,2 km/h
23.02.2024 03:37 9,1 C -21,1 C 10,7 C 9,2 C 8,9 C 65 % 992,2 hPa 0,0 l/m 12,5 km/h SO 139 0 min 0,0 UV-I 2,9 C 5,2 C 21,6 km/h
23.02.2024 03:32 9,1 C -21,1 C 10,7 C 9,2 C 9,1 C 65 % 992,2 hPa 0,0 l/m 12,8 km/h W-SW 251 0 min 0,0 UV-I 2,9 C 5,1 C 22,9 km/h
23.02.2024 03:27 9,3 C -21,1 C 10,7 C 9,3 C 9,1 C 66 % 992,2 hPa 0,0 l/m 13,7 km/h W-SW 251 0 min 0,0 UV-I 3,3 C 4,9 C 6,4 km/h
23.02.2024 03:22 9,3 C -21,1 C 10,7 C 9,3 C 9,1 C 66 % 992,2 hPa 0,0 l/m 14,0 km/h O-SO 116 0 min 0,0 UV-I 3,3 C 4,7 C 10,3 km/h
23.02.2024 03:17 9,4 C -21,1 C 10,7 C 9,4 C 9,2 C 66 % 992,1 hPa 0,0 l/m 14,9 km/h S-SW 206 0 min 0,0 UV-I 3,4 C 4,5 C 9,0 km/h
23.02.2024 03:12 9,5 C -21,1 C 10,7 C 9,4 C 9,2 C 66 % 992,1 hPa 0,0 l/m 16,4 km/h SO 139 0 min 0,0 UV-I 3,5 C 3,9 C 19,3 km/h
23.02.2024 03:07 9,7 C -21,1 C 10,8 C 9,5 C 9,4 C 65 % 992,1 hPa 0,0 l/m 17,9 km/h S 184 0 min 0,0 UV-I 3,4 C 3,6 C 37,9 km/h
23.02.2024 03:02 9,8 C -21,1 C 10,8 C 9,6 C 9,5 C 65 % 992,1 hPa 0,0 l/m 14,6 km/h SO 139 0 min 0,0 UV-I 3,5 C 5,1 C 15,4 km/h
23.02.2024 02:57 9,9 C -21,1 C 10,8 C 9,7 C 9,7 C 66 % 991,6 hPa 0,0 l/m 12,5 km/h W-NW 296 0 min 0,0 UV-I 3,9 C 6,1 C 9,8 km/h
23.02.2024 02:52 10,0 C -21,1 C 10,8 C 9,7 C 9,7 C 65 % 991,6 hPa 0,0 l/m 13,7 km/h NW 319 0 min 0,0 UV-I 3,7 C 5,7 C 15,2 km/h
23.02.2024 02:47 10,1 C -21,1 C 10,8 C 9,8 C 9,9 C 66 % 991,6 hPa 0,0 l/m 16,1 km/h N-NW 341 0 min 0,0 UV-I 4,0 C 4,8 C 13,1 km/h
23.02.2024 02:42 10,2 C -21,1 C 10,8 C 9,9 C 10,0 C 66 % 991,6 hPa 0,0 l/m 15,2 km/h W 274 0 min 0,0 UV-I 4,1 C 5,3 C 25,2 km/h
23.02.2024 02:37 10,4 C -21,1 C 10,9 C 10,0 C 10,2 C 66 % 991,4 hPa 0,0 l/m 11,3 km/h S 184 0 min 0,0 UV-I 4,3 C 7,3 C 16,7 km/h
23.02.2024 02:32 10,5 C -21,1 C 10,9 C 10,1 C 10,3 C 66 % 991,4 hPa 0,0 l/m 11,3 km/h S 184 0 min 0,0 UV-I 4,4 C 7,4 C 17,5 km/h
23.02.2024 02:27 10,6 C -21,1 C 10,9 C 10,2 C 10,5 C 68 % 991,4 hPa 0,0 l/m 13,4 km/h S-SO 161 0 min 0,0 UV-I 4,9 C 6,5 C 9,3 km/h
23.02.2024 02:22 10,6 C -20,9 C 10,9 C 10,2 C 10,7 C 67 % 991,4 hPa 0,0 l/m 13,4 km/h W 274 0 min 0,0 UV-I 4,7 C 6,5 C 12,9 km/h
_ Min-Zeit 05:40 05:40 05:40 05:40 05:05 03:37 00:17 - 05:00 - - - 05:40 05:40 03:07 05:20
Minimum _ 7,2 C -21,3 C 10,2 C 8,0 C 7,0 C 65 % 987,7 hPa - 6,0 km/h - - - 0,0 UV-I 2,1 C 3,6 C 0,0 km/h
_ Max-Zeit 00:27 02:22 00:22 00:27 00:07 00:47 05:20 05:40 03:07 - - 05:40 05:40 00:07 01:52 03:07
Maximum _ 11,7 C -20,9 C 11,2 C 11,0 C 12,4 C 74 % 993,9 hPa 0,0 l/m 17,9 km/h
S
- - 0 min 0,0 UV-I 7,2 C 10,6 C 37,9 km/h
S
Durchschnitt _ 9,7 C -21,1 C 10,8 C 9,6 C 9,7 C 69 % 991,2 hPa #0,0 l/m 11,8 km/h S - #0 min. 0,0 UV-I 4,4 C 6,5 C 13,0 km/h